Le nostre stazioni meteo in Italia

Pubblicità
Il mio iltempo24.it
Capo Carbonara, Italia (16564): Temperatura & dewpoint: 15.09.2018 05:00:00 - 21.09.2018 05:00:00 (CEST)Capo Carbonara, Italia (16564): velocità del vento: 15.09.2018 05:00:00 - 21.09.2018 05:00:00 (CEST)Capo Carbonara, Italia (16564): direzione del vento: 15.09.2018 05:00:00 - 21.09.2018 05:00:00 (CEST)Capo Carbonara, Italia (16564): reduced air pressure: 15.09.2018 05:00:00 - 21.09.2018 05:00:00 (CEST)Capo Carbonara, Italia (16564): visibility: 15.09.2018 05:00:00 - 21.09.2018 05:00:00 (CEST)
Data & Tempo tt [°C] td [°C] ff [km/h] ff [kn] dd ppp [hPa] vv [km]
21.09.2018 05:00:00 - - - - - - -
21.09.2018 04:00:00 - - - - - - -
21.09.2018 03:00:00 - - - - - - -
21.09.2018 02:00:00 22,8 20,1 13 7 O 1012,2 20
21.09.2018 01:00:00 - - - - - - -
21.09.2018 00:00:00 - - - - - - -
20.09.2018 23:00:00 22,8 20,3 11 6 NE 1013,1 20
20.09.2018 22:00:00 - - - - - - -
20.09.2018 21:00:00 - - - - - - -
20.09.2018 20:00:00 22,6 20,1 15 8 E 1012,9 20
20.09.2018 19:00:00 - - - - - - -
20.09.2018 18:00:00 - - - - - - -
20.09.2018 17:00:00 23,2 20,7 44 24 O 1013,1 16
20.09.2018 16:00:00 25,0 23,0 42 23 SO - 10
20.09.2018 15:00:00 28,0 24,0 29 16 NO - 10
20.09.2018 14:00:00 27,2 24,1 24 13 OSO 1014,9 20
20.09.2018 13:00:00 25,0 22,0 29 16 OSO - 10
20.09.2018 12:00:00 - - - - - - -
20.09.2018 11:00:00 23,6 20,9 16 9 OSO 1016,0 25
20.09.2018 10:00:00 - - - - - - -
20.09.2018 09:00:00 - - - - - - -
20.09.2018 08:00:00 22,6 20,0 5 3 O 1016,0 25
20.09.2018 07:00:00 - - - - - - -
20.09.2018 06:00:00 - - - - - - -
20.09.2018 05:00:00 22,6 20,1 9 5 NE 1016,1 18
20.09.2018 04:00:00 - - - - - - -
20.09.2018 03:00:00 - - - - - - -
20.09.2018 02:00:00 22,4 19,8 13 7 O 1016,8 18
20.09.2018 01:00:00 - - - - - - -
20.09.2018 00:00:00 - - - - - - -
19.09.2018 23:00:00 22,2 19,4 18 10 NNE 1016,9 10
19.09.2018 22:00:00 22,0 19,0 18 10 NE - 10
19.09.2018 21:00:00 22,0 19,0 15 8 NE - 10
19.09.2018 20:00:00 22,2 19,6 21 11 NNE 1016,2 20
19.09.2018 19:00:00 22,0 20,0 21 11 NE - 10
19.09.2018 18:00:00 22,0 20,0 11 6 ENE - 10
19.09.2018 17:00:00 22,0 19,7 9 5 ENE 1016,0 18
19.09.2018 16:00:00 28,0 26,0 8 4 - - 10
19.09.2018 15:00:00 29,0 25,0 8 4 ENE - 10
19.09.2018 14:00:00 27,2 23,9 9 5 E 1016,1 20
19.09.2018 13:00:00 27,0 24,0 15 8 E - 10
19.09.2018 12:00:00 26,0 23,0 16 9 E - 10
19.09.2018 11:00:00 25,6 22,7 16 9 ENE 1016,6 20
19.09.2018 10:00:00 24,0 21,0 8 4 E - 10
19.09.2018 09:00:00 23,0 21,0 5 3 NE - 10
19.09.2018 08:00:00 22,6 20,9 8 4 ENE 1015,7 18
19.09.2018 07:00:00 23,0 21,0 15 8 NE - 10
19.09.2018 06:00:00 23,0 21,0 16 9 NE - 10
19.09.2018 05:00:00 23,2 21,5 16 9 NE 1015,2 10
19.09.2018 04:00:00 24,0 22,0 13 7 ENE - 10
19.09.2018 03:00:00 24,0 22,0 0 0 N - 10
19.09.2018 02:00:00 23,8 22,1 9 5 ONO 1015,8 10
19.09.2018 01:00:00 25,0 23,0 21 11 SSO - 10
19.09.2018 00:00:00 25,0 23,0 18 10 SSE - 10
18.09.2018 23:00:00 25,0 23,2 18 10 ENE 1016,7 10
18.09.2018 22:00:00 25,0 23,0 26 14 ENE - 10
18.09.2018 21:00:00 25,0 23,0 24 13 ENE - 10
18.09.2018 20:00:00 25,0 23,1 28 15 ENE 1016,3 10
18.09.2018 19:00:00 - - - - - - -
18.09.2018 18:00:00 - - - - - - -
18.09.2018 17:00:00 28,0 26,0 8 4 ESE 1017,3 4,0
18.09.2018 16:00:00 - - - - - - -
18.09.2018 15:00:00 - - - - - - -
18.09.2018 14:00:00 26,8 21,6 8 4 E 1018,3 10
18.09.2018 13:00:00 - - - - - - -
18.09.2018 12:00:00 - - - - - - -
18.09.2018 11:00:00 24,0 18,9 35 19 ENE 1018,1 10
18.09.2018 10:00:00 - - - - - - -
18.09.2018 09:00:00 - - - - - - -
18.09.2018 08:00:00 24,0 19,1 5 3 ENE 1017,8 12
18.09.2018 07:00:00 - - - - - - -
18.09.2018 06:00:00 - - - - - - -
18.09.2018 05:00:00 24,0 19,3 15 8 NE 1017,7 18
18.09.2018 04:00:00 - - - - - - -
18.09.2018 03:00:00 - - - - - - -
18.09.2018 02:00:00 24,6 19,9 5 3 ENE 1018,4 18
18.09.2018 01:00:00 - - - - - - -
18.09.2018 00:00:00 - - - - - - -
17.09.2018 23:00:00 25,0 20,3 21 11 ENE 1018,4 18
17.09.2018 22:00:00 - - - - - - -
17.09.2018 21:00:00 - - - - - - -
17.09.2018 20:00:00 25,6 18,5 11 6 E 1017,7 18
17.09.2018 19:00:00 - - - - - - -
17.09.2018 18:00:00 - - - - - - -
17.09.2018 17:00:00 28,2 23,6 9 5 E 1019,3 18
17.09.2018 16:00:00 - - - - - - -
17.09.2018 15:00:00 - - - - - - -
17.09.2018 14:00:00 28,6 23,3 18 10 E 1020,5 18
17.09.2018 13:00:00 - - - - - - -
17.09.2018 12:00:00 - - - - - - -
17.09.2018 11:00:00 24,6 20,7 21 11 ENE 1020,7 10
17.09.2018 10:00:00 - - - - - - -
17.09.2018 09:00:00 - - - - - - -
17.09.2018 08:00:00 23,8 19,9 16 9 ENE 1019,8 16
17.09.2018 07:00:00 - - - - - - -
17.09.2018 06:00:00 - - - - - - -
17.09.2018 05:00:00 23,8 -3,5 11 6 ENE 1019,8 10
17.09.2018 04:00:00 - - - - - - -
17.09.2018 03:00:00 - - - - - - -
17.09.2018 02:00:00 24,4 20,7 9 5 ESE 1021,0 16
17.09.2018 01:00:00 - - - - - - -
17.09.2018 00:00:00 - - - - - - -
16.09.2018 23:00:00 24,4 20,7 8 4 ENE 1020,7 16
16.09.2018 22:00:00 - - - - - - -
16.09.2018 21:00:00 - - - - - - -
16.09.2018 20:00:00 24,8 21,1 8 4 SSO 1020,8 10
16.09.2018 19:00:00 - - - - - - -
16.09.2018 18:00:00 - - - - - - -
16.09.2018 17:00:00 29,4 25,4 11 6 SSE 1020,0 20
16.09.2018 16:00:00 - - - - - - -
16.09.2018 15:00:00 - - - - - - -
16.09.2018 14:00:00 29,6 25,4 15 8 S 1021,3 10
16.09.2018 13:00:00 - - - - - - -
16.09.2018 12:00:00 - - - - - - -
16.09.2018 11:00:00 24,0 20,1 11 6 ENE 1021,3 10
16.09.2018 10:00:00 - - - - - - -
16.09.2018 09:00:00 - - - - - - -
16.09.2018 08:00:00 23,4 19,3 4 2 N 1022,3 10
16.09.2018 07:00:00 - - - - - - -
16.09.2018 06:00:00 - - - - - - -
16.09.2018 05:00:00 23,8 20,0 13 7 NE 1020,0 10
16.09.2018 04:00:00 - - - - - - -
16.09.2018 03:00:00 - - - - - - -
16.09.2018 02:00:00 24,0 20,3 9 5 ENE 1020,2 20
16.09.2018 01:00:00 - - - - - - -
16.09.2018 00:00:00 - - - - - - -
15.09.2018 23:00:00 25,0 21,4 2 1 E 1020,2 20
15.09.2018 22:00:00 - - - - - - -
15.09.2018 21:00:00 - - - - - - -
15.09.2018 20:00:00 25,2 21,5 8 4 SO 1019,5 20
15.09.2018 19:00:00 - - - - - - -
15.09.2018 18:00:00 - - - - - - -
15.09.2018 17:00:00 28,4 24,6 24 13 SO 1018,9 20
15.09.2018 16:00:00 29,0 25,0 26 14 ONO - 10
15.09.2018 15:00:00 29,0 25,0 26 14 SO - 10
15.09.2018 14:00:00 29,0 24,6 28 15 SO 1018,7 20
15.09.2018 13:00:00 - - - - - - -
15.09.2018 12:00:00 26,0 22,0 35 19 OSO - 10
15.09.2018 11:00:00 25,2 20,2 8 4 O 1019,0 20
15.09.2018 10:00:00 23,0 19,0 15 8 OSO - 10
15.09.2018 09:00:00 23,0 19,0 0 0 N - 10
15.09.2018 08:00:00 23,0 19,0 4 2 ENE 1018,4 25
15.09.2018 07:00:00 23,0 19,0 8 4 E - 10
15.09.2018 06:00:00 24,0 18,0 4 2 ONO - 10
15.09.2018 05:00:00 22,6 18,8 21 11 O 1017,2 20

tt = Temperatura
td = dewpoint
ff = velocità del vento
dd = direzione del vento
ppp = reduced air pressure
vv = visibility

Stazioni seguenti

WeatherPro
AMSI
MeteoEarth